Wind_Speed
13 12 12 12 11 11 11 11 12 12 12 13 13 13 13 14 15 15 15 15 15 15 16 16 16 16 15 15 15 15 16 15 15 16 15 15 14 13 12 11 10 9 9 9 9 8 8 8 9 10 11 11 11 11 11 11 11 11 10 11 13 10 8 8 6 8 7 3 5 6 2 2 3 2 2 5 8 12 14 12 13 17 16 12 11 9 8 6
13 12 12 12 11 11 11 11 11 11 11 11 11 11 12 12 12 13 13 13 13 13 14 14 14 14 14 13 14 14 14 14 14 15 15 15 15 14 13 12 11 9 9 9 9 9 9 9 10 11 11 11 11 11 11 10 11 11 11 13 12 8 10 12 10 11 9 7 9 6 4 1 2 1 3 2 2 9 13 11 12 14 14 11 10 8 7 7
13 12 12 12 12 11 11 11 11 11 11 11 11 10 11 11 11 11 11 11 11 12 12 13 13 13 12 12 12 13 13 13 13 14 15 15 15 15 14 13 11 9 9 8 9 9 9 10 10 11 12 12 12 12 11 11 11 11 13 13 11 13 15 14 13 12 11 11 10 7 4 2 3 1 2 2 1 5 10 12 12 11 11 11 9 8 8 9
14 13 13 13 12 12 11 11 11 11 11 11 11 10 10 10 10 10 10 10 10 11 12 12 12 12 12 12 12 12 12 12 13 14 14 15 15 15 15 14 11 9 9 9 9 9 9 10 9 11 11 12 13 13 13 12 10 12 15 12 12 16 14 12 13 12 12 11 10 8 5 4 3 2 2 3 2 2 7 11 12 9 10 11 9 8 8 10
14 14 13 13 13 13 12 12 11 11 11 11 11 11 11 10 10 10 10 10 10 10 11 11 11 11 11 11 11 12 10 8 11 13 14 15 14 15 16 15 12 10 9 9 9 10 10 10 11 12 11 12 13 12 13 13 11 13 15 14 16 16 10 11 14 11 12 11 9 9 6 5 5 2 2 4 2 2 6 10 11 11 11 12 11 9 10 11
15 14 14 14 14 14 13 13 12 12 12 12 12 11 11 11 10 10 10 10 9 9 10 10 10 10 10 10 11 11 9 7 8 10 11 13 14 15 15 15 13 10 9 9 10 11 11 11 11 11 11 12 12 11 12 11 12 13 12 15 17 15 12 14 14 12 11 10 9 9 8 7 6 3 4 4 4 5 9 10 12 12 13 14 14 13 12 12
16 15 15 14 14 14 14 13 13 12 12 12 12 12 11 11 11 11 11 10 9 9 9 10 10 10 10 10 11 11 11 11 11 10 10 11 12 13 14 14 13 11 10 9 10 11 12 12 11 11 11 11 11 11 10 9 11 12 12 15 16 14 14 15 14 14 12 11 10 9 9 8 7 6 4 4 6 9 10 10 12 14 16 16 16 15 15 13
16 16 15 15 15 15 14 14 13 12 13 12 12 12 12 12 11 11 11 10 9 9 9 10 9 10 10 10 11 11 12 13 13 12 11 11 12 12 13 14 13 12 11 9 10 11 12 12 11 11 9 10 11 10 10 9 11 14 14 15 15 14 15 14 14 14 14 13 10 10 10 7 7 8 5 6 9 10 10 11 12 15 16 16 16 16 14 13
17 16 16 15 15 15 15 14 13 12 12 12 11 11 11 11 12 11 11 10 10 9 9 9 9 9 9 10 10 10 12 13 12 13 13 13 13 13 12 13 13 12 11 10 10 10 11 12 11 11 10 11 12 10 10 9 10 14 14 14 14 14 15 14 14 13 13 13 11 11 10 6 9 10 5 7 11 10 10 13 14 15 15 15 14 13 12 12
17 16 16 16 16 15 15 14 13 13 12 12 11 10 10 10 11 11 11 11 10 10 9 9 9 9 9 10 10 9 12 13 13 13 13 14 15 15 14 12 12 11 10 10 10 10 11 12 12 13 12 13 12 11 12 11 11 13 13 14 15 16 16 16 15 14 13 12 11 12 10 8 11 11 6 7 11 10 11 15 16 15 15 13 11 10 8 7
17 16 16 16 16 16 15 15 14 14 13 12 12 11 10 10 10 11 11 10 10 10 10 10 10 9 9 10 10 11 12 13 13 14 14 14 15 15 14 13 13 12 12 10 9 9 10 10 12 11 10 12 12 11 12 13 14 14 14 14 14 15 16 16 14 12 13 11 11 12 11 10 12 13 10 9 10 11 13 16 17 15 13 12 10 7 4 3
17 16 16 16 16 16 16 16 15 15 14 13 12 11 11 11 11 11 11 10 9 9 9 10 10 10 10 10 11 12 12 13 14 14 15 15 15 14 13 13 13 13 13 12 11 10 10 9 10 11 10 10 10 9 11 14 14 14 15 12 10 13 14 13 12 11 12 11 11 11 10 12 14 14 14 12 11 12 14 16 16 15 13 11 9 5 3 4
16 16 16 16 17 17 17 16 16 16 15 14 13 12 12 12 12 12 11 11 10 10 9 9 10 11 11 10 11 12 11 12 13 14 15 15 15 14 13 13 13 13 14 13 13 12 11 10 10 13 13 10 9 10 10 12 14 12 12 10 8 10 10 11 11 9 10 11 11 10 10 12 14 16 16 15 14 14 14 15 15 15 14 11 8 5 5 5
16 16 16 17 17 17 17 16 16 16 15 15 13 13 12 12 13 13 12 12 11 11 10 10 10 11 11 9 10 12 11 11 12 13 14 15 15 15 14 13 13 14 14 13 12 12 11 11 11 13 14 12 12 13 9 8 10 8 8 10 9 8 6 7 8 3 4 9 9 9 11 11 11 14 19 17 15 15 13 14 15 15 13 10 7 7 7 6
16 15 16 17 17 17 17 16 16 16 15 15 14 13 13 13 14 14 14 13 13 12 11 11 10 10 11 9 9 11 11 11 11 12 12 13 13 13 14 14 15 15 14 13 12 12 11 11 11 11 14 15 14 11 7 6 8 8 8 8 8 9 6 5 7 4 3 4 5 10 13 13 9 11 19 19 17 17 13 13 15 14 11 8 8 9 8 7
15 14 15 16 16 16 16 16 16 16 15 15 15 14 14 14 15 15 15 15 14 13 12 12 11 11 11 9 8 11 13 12 12 12 12 12 12 13 14 16 16 16 14 13 13 12 11 11 12 13 15 14 12 9 8 8 9 10 10 7 6 7 5 5 7 6 6 2 3 9 13 12 9 10 18 19 18 18 15 14 15 13 11 9 11 11 10 8
14 13 14 15 16 16 16 16 16 16 16 15 15 15 15 16 16 16 16 16 15 15 14 13 12 12 12 11 9 10 12 12 12 12 12 12 13 13 14 15 16 15 14 13 13 12 12 13 14 15 15 13 11 10 10 11 11 11 10 9 7 6 6 5 4 5 7 5 5 8 11 12 8 8 16 18 18 19 18 16 15 14 12 11 13 14 12 9
13 13 13 14 15 16 16 16 16 16 16 15 16 16 17 17 18 18 17 16 16 15 15 15 14 13 11 12 14 14 13 13 12 11 11 11 13 14 15 15 15 15 14 12 12 13 13 14 14 12 14 16 15 15 14 10 8 9 9 8 7 7 8 6 5 4 5 6 7 8 11 14 12 8 14 18 17 18 19 18 17 15 14 14 16 16 14 11
12 12 13 14 15 15 16 16 16 17 16 16 16 17 18 19 18 18 18 18 17 16 14 14 16 14 10 9 13 16 15 15 15 14 12 11 11 14 16 16 16 14 12 11 11 13 13 14 15 14 16 20 19 18 14 8 4 6 7 6 6 6 7 7 7 7 7 8 10 11 12 13 13 10 12 18 18 17 19 20 18 17 16 16 18 18 16 14
12 12 13 14 14 15 15 16 17 17 16 16 15 16 18 18 16 16 18 18 17 17 18 18 17 17 17 15 12 12 12 12 12 14 14 13 11 14 17 18 18 15 12 11 11 14 15 14 17 19 18 18 19 18 14 10 10 9 6 6 8 8 7 8 8 7 8 11 11 12 14 13 14 12 11 17 20 18 18 20 20 20 19 18 20 21 19 17
11 12 12 13 14 15 15 15 16 16 15 14 14 14 15 15 13 13 15 14 15 17 19 20 20 20 23 23 18 16 15 13 13 14 14 14 11 14 18 20 19 16 13 12 12 16 16 15 19 19 16 15 17 19 17 15 15 12 9 9 10 10 9 9 9 8 10 13 13 12 14 15 16 14 12 16 22 21 20 20 21 22 20 20 21 23 22 20
11 12 12 13 13 14 14 15 16 15 14 12 12 13 13 13 12 12 13 11 11 14 15 16 18 20 22 23 22 22 22 19 17 17 15 14 12 14 18 20 19 15 15 16 14 15 16 19 19 15 17 20 19 18 17 14 12 11 10 11 11 10 9 9 9 8 8 11 12 11 13 16 16 16 15 16 22 23 22 22 22 21 20 20 22 24 23 22
11 12 12 12 13 14 14 14 15 14 12 11 10 12 11 11 10 10 11 10 8 9 12 11 13 15 17 19 21 24 26 24 21 19 18 15 13 15 18 20 20 15 16 19 16 15 15 16 16 17 23 23 19 17 15 11 11 11 11 11 11 8 7 8 6 4 7 9 10 10 12 16 17 18 19 18 21 23 23 24 24 23 21 20 22 24 23 22
11 12 12 13 13 13 13 13 13 12 11 9 9 10 10 9 8 8 10 10 6 6 9 9 11 13 14 16 19 21 23 25 24 23 22 18 16 16 17 19 20 17 17 18 17 16 13 11 14 20 24 20 15 16 15 12 12 13 14 14 12 10 8 10 8 7 10 12 13 12 12 17 20 20 20 19 21 23 24 25 27 27 24 21 22 24 25 25
11 12 13 13 13 13 13 12 12 11 9 8 8 9 8 7 6 7 8 6 4 4 7 8 10 10 11 12 14 17 21 23 26 27 25 21 18 16 16 17 19 18 18 17 17 16 13 16 17 16 17 16 14 14 15 14 13 12 14 15 14 13 12 12 11 9 11 12 13 12 11 14 16 18 19 17 19 23 24 27 29 29 28 25 23 26 28 26
12 13 13 13 12 12 12 11 11 10 8 8 8 7 7 6 6 5 5 4 2 5 7 8 8 6 8 8 8 13 16 20 26 28 26 23 20 16 15 18 19 16 16 15 15 14 13 19 19 12 11 14 14 14 14 15 14 12 11 10 10 12 12 11 10 9 10 8 7 10 11 11 10 12 15 16 18 20 22 26 29 29 29 29 28 27 28 26
12 13 13 12 11 11 11 11 10 9 8 8 7 7 6 6 5 3 2 3 4 7 8 8 8 4 6 5 4 8 11 16 24 27 27 24 22 20 17 17 19 17 16 14 12 13 15 19 18 14 11 11 12 13 12 14 13 10 8 6 5 7 9 9 10 12 10 6 5 11 12 12 13 12 11 14 17 18 21 24 26 27 29 32 32 31 29 27
12 13 12 11 10 10 11 11 9 8 8 8 7 7 6 6 6 3 1 3 3 7 7 8 9 4 2 3 6 11 13 13 16 22 29 26 23 22 18 17 18 18 18 16 12 11 15 18 17 16 15 13 14 12 10 12 11 9 7 5 4 5 8 9 10 11 9 7 9 14 13 11 15 14 12 14 17 18 19 21 23 26 29 31 34 34 31 29
13 12 10 10 10 10 11 10 8 8 9 8 7 7 7 7 7 4 2 4 3 7 6 6 8 3 1 2 7 13 15 12 11 17 27 28 24 22 19 18 16 15 17 16 12 9 11 14 13 15 17 16 15 13 11 12 11 10 8 6 4 5 7 8 10 11 8 8 12 13 14 12 12 13 13 13 16 16 15 17 20 25 28 31 36 37 32 28
12 10 9 10 9 9 9 8 7 8 8 8 7 8 9 8 7 4 3 4 4 6 7 7 6 2 1 1 6 12 14 13 10 15 23 25 24 23 21 19 16 13 14 15 13 11 12 12 11 13 16 15 13 13 13 13 11 10 9 6 5 5 7 8 9 10 8 9 13 12 13 12 10 11 11 11 14 16 16 16 18 22 24 27 35 38 33 29
10 9 9 9 8 7 7 7 7 7 7 8 8 9 10 8 6 4 4 5 5 4 6 7 6 2 1 2 5 11 15 13 9 13 23 25 23 23 21 18 17 14 13 14 15 15 14 13 11 12 14 13 10 11 15 14 13 11 9 8 9 8 9 10 10 10 8 8 8 9 11 12 12 10 6 7 14 17 17 16 17 17 17 19 28 35 35 31
8 8 9 8 7 6 7 7 7 8 7 8 9 11 10 7 6 6 3 4 4 4 6 9 8 3 0 2 4 9 15 15 10 11 19 24 23 24 23 19 19 18 14 16 16 13 14 14 13 12 14 13 11 11 14 14 13 12 11 11 12 9 8 9 9 9 10 6 6 6 6 10 15 13 8 10 15 17 18 18 16 14 13 15 21 30 35 32
7 8 8 7 7 7 7 7 7 8 8 9 10 12 10 5 6 8 6 3 3 5 7 8 8 4 2 2 3 7 11 15 15 12 15 20 20 22 23 19 20 18 13 15 15 12 12 14 15 16 16 17 16 14 14 15 15 15 14 14 13 8 6 8 8 8 10 6 6 4 6 10 15 12 11 16 19 19 19 17 14 12 13 15 18 27 33 33
7 8 8 7 7 7 7 7 7 8 10 10 12 13 10 6 5 7 7 5 5 6 4 5 5 3 3 3 3 7 10 12 16 14 13 19 19 19 21 19 20 18 11 11 14 13 11 11 15 18 17 18 22 21 16 12 14 17 16 15 15 12 9 7 6 6 8 5 5 6 6 10 11 7 9 15 16 17 17 13 10 8 12 15 19 24 29 31
8 8 8 8 7 7 7 8 8 10 11 12 13 14 11 8 3 4 5 6 8 8 5 5 4 3 4 4 2 6 11 11 15 14 13 17 20 20 20 20 22 20 14 11 10 11 11 9 10 15 16 15 21 24 18 11 11 14 14 14 15 15 12 7 5 5 5 5 5 7 7 9 5 3 8 11 10 13 14 10 6 4 9 14 19 23 26 26
8 8 8 8 7 7 7 8 9 10 12 13 15 14 12 9 5 4 6 6 7 6 4 4 4 4 6 6 3 4 9 11 14 14 12 15 17 18 18 18 21 22 18 14 10 9 11 8 7 12 16 15 16 20 20 16 11 11 14 16 15 12 10 8 5 3 5 6 5 8 10 10 5 4 8 9 7 9 10 8 7 5 5 9 13 18 20 18
8 8 8 7 7 6 7 8 9 10 12 14 15 14 12 12 11 9 8 7 6 4 2 2 3 4 4 6 4 2 5 10 13 14 13 13 13 14 16 15 18 22 20 15 12 9 9 6 6 10 14 16 16 17 19 18 13 10 11 13 12 10 10 10 7 5 6 7 6 7 10 12 9 5 5 5 6 7 8 8 8 8 6 6 8 10 12 11
8 8 7 6 6 6 7 7 8 10 13 14 15 16 14 13 13 12 11 9 8 5 3 3 4 3 2 4 4 2 5 8 13 15 14 13 11 11 15 15 15 19 20 16 13 10 10 8 6 9 12 14 15 15 16 18 18 14 11 9 10 10 10 10 9 7 6 7 6 7 10 11 8 5 4 5 6 8 9 7 6 7 6 5 5 5 6 7
9 7 6 6 6 7 7 7 8 10 12 12 12 14 13 12 13 13 12 11 9 6 4 5 5 4 3 3 2 2 5 6 10 14 14 13 11 9 12 14 13 15 18 17 14 11 10 10 7 9 10 11 13 15 16 15 17 17 14 11 10 10 9 9 10 9 8 6 5 6 6 3 2 6 7 7 9 8 9 7 6 7 6 4 2 2 3 3
9 7 6 7 7 7 8 7 8 9 11 11 10 11 12 11 11 11 10 9 7 5 4 5 5 4 3 3 2 3 5 4 7 12 12 12 13 10 10 14 13 14 18 18 16 13 12 11 8 8 10 12 13 15 16 14 15 16 17 15 13 11 11 9 9 10 10 6 4 6 4 4 3 7 9 10 9 6 5 7 8 9 7 4 1 3 5 6
10 7 7 8 7 7 8 6 7 9 9 9 9 11 12 10 8 9 8 7 6 6 6 6 6 6 4 3 3 2 2 3 6 10 11 12 13 10 10 13 13 13 15 17 17 16 13 12 12 9 11 13 12 13 15 14 15 15 15 16 16 15 13 10 9 10 11 9 6 6 2 3 3 6 7 11 10 4 3 5 6 8 8 6 6 6 7 8
10 7 7 8 7 7 7 6 7 8 7 7 8 9 10 9 8 8 8 6 5 6 7 7 7 7 5 4 4 2 3 3 4 7 10 11 11 12 13 14 12 10 10 12 16 19 16 13 13 13 12 11 9 11 13 12 15 17 15 15 14 14 15 13 9 7 10 11 9 9 4 2 5 5 3 6 7 5 6 5 5 6 7 8 9 9 9 8
8 7 8 9 8 7 6 5 6 6 6 8 8 8 8 8 8 7 7 7 6 5 6 7 7 7 6 6 5 2 3 4 3 4 7 7 10 16 18 16 15 13 10 8 12 19 19 14 12 13 13 10 9 11 12 10 10 12 13 15 15 13 15 15 10 6 8 9 8 10 5 3 5 5 2 4 5 7 9 9 8 7 5 6 8 9 9 9
8 8 8 9 9 7 6 5 5 5 7 8 8 8 8 8 8 8 9 9 8 8 7 7 8 9 10 9 7 3 3 4 3 2 4 5 9 16 18 17 17 16 14 13 12 15 16 14 13 12 11 11 11 11 12 12 10 9 10 14 15 14 16 17 13 10 11 10 10 10 3 4 3 3 1 4 6 7 8 8 8 6 5 5 6 7 8 9
8 8 8 8 8 6 6 7 6 5 6 6 5 5 6 7 8 10 10 10 11 10 8 7 10 12 12 11 8 5 5 5 4 3 2 3 8 15 16 16 18 17 18 19 16 14 13 12 14 12 8 9 9 8 12 14 10 9 11 13 14 15 16 16 13 13 13 10 11 11 4 5 4 3 3 5 7 7 6 5 5 6 5 5 5 6 7 7
8 8 7 7 7 6 5 6 6 4 4 3 2 2 2 3 6 8 9 8 9 11 10 10 11 12 13 12 9 6 6 7 6 4 2 3 7 14 17 17 19 19 17 17 17 17 15 13 15 13 7 4 3 4 10 14 9 8 10 11 12 14 14 13 11 11 10 8 10 13 8 7 8 7 7 9 9 8 7 6 6 6 5 5 5 6 5 5
7 6 7 6 4 4 4 3 3 3 2 2 2 2 1 1 3 5 6 6 7 10 10 10 11 11 13 14 11 7 6 7 7 6 6 6 8 12 16 17 20 20 18 16 16 18 16 13 16 15 7 4 3 4 9 13 12 12 12 11 11 12 12 12 12 10 6 6 8 9 10 10 11 11 12 12 12 9 7 7 8 7 6 7 8 7 5 4
8 7 8 7 4 4 4 3 2 1 1 2 3 3 1 1 2 3 5 5 5 6 6 6 8 10 14 15 12 9 7 7 7 8 9 9 8 11 14 16 18 21 21 18 16 16 15 13 16 16 9 6 5 6 7 10 12 13 12 11 10 10 11 12 14 13 9 6 3 7 10 12 13 13 13 12 12 10 8 8 9 9 8 9 10 8 6 5
9 8 7 6 5 5 4 3 1 1 1 2 3 3 3 2 2 3 4 3 3 4 5 4 5 7 12 15 12 9 9 8 7 9 10 10 9 11 15 16 16 17 20 20 18 15 12 14 19 20 16 12 7 4 5 7 10 11 11 11 11 9 10 12 13 14 12 8 5 6 9 12 14 14 14 12 10 8 7 8 10 9 9 10 11 9 7 5
9 8 6 4 4 3 2 1 1 2 2 3 4 3 3 3 1 2 3 3 2 2 3 3 3 5 7 10 11 11 12 11 9 9 10 10 10 11 13 14 13 14 17 18 17 13 9 11 16 16 14 13 11 7 5 5 7 8 8 10 10 6 6 10 11 10 9 9 9 9 10 12 13 14 14 12 10 7 6 8 8 7 8 11 11 9 7 5
9 7 5 4 3 2 1 0 2 3 3 3 3 4 3 2 1 2 2 3 4 3 3 4 5 4 3 4 7 11 12 11 9 9 8 8 9 10 11 14 14 14 15 15 14 13 10 9 13 12 10 10 11 10 7 7 6 6 5 6 7 5 5 8 9 9 6 6 7 7 9 12 14 13 13 12 12 11 9 9 8 6 6 9 9 8 6 4
10 7 5 6 5 3 2 1 2 4 3 4 5 5 3 1 1 1 2 1 2 4 5 6 6 5 4 3 5 8 11 10 8 7 8 7 6 7 10 13 14 14 15 17 16 13 10 9 13 14 10 10 12 12 10 8 5 5 3 2 3 4 5 6 8 9 8 6 5 4 7 12 13 12 12 11 10 10 8 7 7 7 6 7 7 6 6 5
Wind_Direction
241 242 243 244 245 246 247 250 253 255 255 255 255 256 257 258 258 258 259 259 260 260 260 260 259 259 257 255 254 254 255 254 252 248 246 243 243 249 258 261 260 259 258 258 256 249 243 237 235 231 230 227 227 229 224 219 214 207 202 216 230 231 231 217 208 216 203 207 226 226 259 34 18 346 147 154 165 179 186 186 193 192 183 177 179 184 187 187
239 239 239 241 241 242 244 246 250 253 254 256 256 257 258 259 260 260 261 261 261 262 263 263 262 262 260 259 257 257 258 257 253 249 246 243 240 243 251 257 259 258 255 255 253 248 241 235 233 229 228 227 225 226 223 219 213 206 207 224 232 230 227 225 232 231 223 233 228 234 268 286 7 348 123 108 178 174 176 179 177 180 179 178 183 178 176 175
238 237 239 239 240 240 241 244 248 252 254 257 258 259 260 260 262 263 264 263 264 265 266 267 266 266 264 263 261 260 261 259 255 251 247 243 239 239 246 253 257 255 251 250 248 246 240 235 233 229 227 227 225 224 221 218 213 209 214 227 241 241 237 239 245 240 237 238 237 244 244 274 326 255 147 104 153 161 165 176 172 175 182 176 175 172 170 168
238 238 240 242 243 242 242 244 247 251 254 257 259 260 260 261 263 264 266 266 267 267 267 268 268 267 266 264 263 261 261 264 258 252 249 244 238 238 242 249 252 250 247 245 243 242 238 234 231 230 227 228 229 222 221 217 209 215 218 221 237 241 243 249 246 243 248 246 245 244 233 280 281 197 180 149 136 162 168 173 164 161 178 178 175 174 173 171
241 241 242 245 247 247 246 246 248 251 254 257 259 260 261 263 264 265 266 266 266 266 266 267 267 265 263 261 260 258 260 265 259 250 247 245 239 236 238 243 246 245 245 243 241 238 234 229 225 226 222 226 233 226 226 222 213 224 225 224 234 238 240 248 251 252 254 252 249 250 254 254 217 189 235 185 182 225 184 175 161 154 167 181 185 185 188 187
243 243 244 246 248 249 249 249 251 253 255 258 259 261 262 264 265 266 265 265 264 264 264 264 263 261 258 255 254 253 245 237 247 246 244 244 240 236 236 238 240 240 242 241 238 234 232 230 225 225 221 227 235 227 228 229 224 232 238 241 244 246 243 246 257 259 253 253 249 248 248 223 189 219 255 198 198 198 181 172 166 165 168 178 185 186 195 201
243 244 245 247 249 250 251 252 253 254 256 257 260 261 263 264 265 265 264 265 263 262 262 262 259 255 253 250 248 249 240 234 241 244 242 243 239 236 233 233 234 234 239 238 234 232 230 229 223 222 221 227 232 225 225 226 226 227 231 244 250 251 249 249 256 257 253 253 247 241 236 214 198 232 241 187 191 191 181 171 169 173 174 181 187 184 188 197
244 244 245 246 248 249 250 251 252 254 256 258 260 262 263 264 264 265 264 264 263 262 261 260 257 252 249 247 245 247 245 241 242 242 239 239 238 235 232 232 232 232 234 230 229 229 230 227 222 221 217 224 231 226 220 215 226 228 225 240 252 255 257 254 254 255 254 252 244 238 231 218 217 221 208 179 182 184 184 177 174 176 178 185 188 184 180 188
243 244 244 245 247 248 248 248 249 251 254 257 260 262 264 265 265 265 265 263 263 263 261 260 255 250 247 245 244 246 246 242 240 240 237 236 237 236 233 231 229 230 226 225 231 230 227 222 217 215 212 222 227 223 217 207 229 238 232 240 246 252 258 251 248 253 255 250 239 234 235 242 230 212 198 190 183 180 184 184 181 180 181 183 185 184 181 188
243 243 244 245 246 246 246 247 248 250 252 255 258 261 264 266 267 267 265 263 262 261 260 259 254 249 245 243 243 245 244 240 237 236 234 234 235 235 235 233 229 228 225 228 235 235 230 222 220 218 215 223 222 220 215 199 218 235 232 236 237 242 250 246 244 250 252 247 234 233 243 247 223 206 207 208 192 188 191 189 186 184 184 183 182 188 190 195
243 243 244 245 246 246 247 249 250 251 253 254 257 261 264 268 269 269 268 265 262 259 257 255 253 248 244 243 244 244 241 236 234 231 229 230 232 234 235 233 228 225 225 227 230 236 236 233 232 222 216 225 220 221 224 212 220 231 230 237 242 245 252 252 251 256 256 251 240 239 248 236 210 203 210 209 199 193 193 191 188 188 188 186 187 194 197 182
243 244 245 247 249 250 251 252 253 255 255 255 257 261 265 268 270 270 270 268 264 258 254 251 249 247 245 244 244 244 241 236 233 228 226 227 229 231 232 232 229 226 226 226 226 228 229 234 235 221 217 221 212 220 232 224 225 231 234 241 255 259 263 264 260 262 258 252 247 244 249 236 213 211 212 207 204 193 192 192 189 194 190 187 194 195 168 137
244 246 249 251 253 253 254 254 255 255 255 255 257 260 264 268 269 270 269 266 262 257 252 248 246 245 246 248 245 242 239 236 235 230 226 225 225 225 226 228 226 227 227 225 224 224 224 226 226 225 222 203 195 219 229 227 227 231 242 242 253 264 259 256 261 268 262 254 246 236 244 233 210 216 216 205 203 193 192 194 193 198 192 190 198 183 150 125
247 250 253 255 255 255 254 254 255 255 255 255 257 260 264 267 268 268 266 263 259 255 251 246 246 246 247 251 246 241 238 234 233 232 228 226 225 222 221 223 222 224 224 222 223 222 222 221 224 230 224 205 207 224 227 235 230 220 244 241 239 249 228 236 258 260 261 264 243 217 234 225 192 211 215 202 197 190 191 196 195 198 192 189 187 168 153 134
249 253 255 256 255 254 253 254 254 254 255 256 257 260 263 267 268 266 263 259 255 252 248 245 247 249 252 255 248 243 241 233 228 230 230 228 225 219 216 218 220 221 221 219 219 220 216 216 223 224 221 222 223 219 211 230 226 211 233 231 218 229 216 229 251 194 170 272 241 206 227 228 204 215 213 202 195 188 190 195 192 195 195 187 175 170 167 155
250 252 255 256 255 254 254 254 255 256 257 258 259 260 264 266 267 265 261 257 253 250 247 246 247 249 255 261 250 240 240 237 231 228 229 225 219 214 211 215 220 221 221 218 216 216 210 210 215 214 216 221 217 207 208 222 222 217 228 225 205 222 223 221 243 229 200 229 229 211 226 228 219 220 215 210 200 192 192 196 195 197 200 187 175 181 181 172
250 251 254 256 257 257 256 256 257 259 260 261 262 263 265 266 266 264 261 258 255 251 248 246 247 249 254 258 244 230 231 234 234 229 227 224 218 213 211 215 220 221 220 217 215 211 206 209 214 216 217 211 204 205 213 222 219 211 216 227 222 221 233 221 226 246 228 221 229 224 232 232 229 225 220 219 213 206 201 202 203 201 202 188 178 188 191 189
250 251 253 255 257 257 257 258 260 262 262 264 265 266 267 266 265 264 262 260 255 253 253 249 245 248 254 252 240 234 233 235 238 233 226 223 218 215 211 212 218 222 223 219 216 211 206 211 210 211 216 211 208 207 212 226 219 206 209 223 231 224 232 230 216 244 242 235 239 236 239 238 238 237 226 223 221 218 211 208 208 204 204 193 182 191 194 195
251 251 253 256 258 259 260 262 264 267 267 268 268 269 269 268 267 265 262 258 254 253 254 248 239 237 238 240 234 232 233 236 241 240 233 225 215 215 213 212 216 217 217 218 218 212 205 207 204 202 212 215 216 212 216 237 215 200 211 220 233 230 228 228 227 246 252 250 249 242 243 241 236 234 228 226 224 222 217 213 212 205 204 198 188 191 196 197
253 252 254 257 259 261 263 266 269 270 271 272 271 270 270 270 271 268 261 255 253 249 247 245 238 233 232 231 221 213 217 225 237 242 237 229 215 212 212 210 211 208 205 207 216 216 206 204 208 210 216 219 219 213 211 225 220 215 229 238 244 247 245 235 234 254 260 257 253 243 244 243 237 233 230 230 228 226 222 219 218 212 205 202 194 192 195 200
255 255 257 258 261 263 265 268 270 271 273 274 272 269 268 270 270 267 262 255 250 245 242 243 242 237 236 236 229 224 227 227 233 239 235 228 214 208 212 209 205 205 200 192 208 220 209 209 219 219 222 218 213 215 217 225 230 232 241 250 251 250 250 243 244 260 264 260 255 247 246 246 242 238 234 235 231 228 226 221 221 220 214 209 200 194 196 201
257 258 259 260 262 264 266 268 270 271 272 272 270 266 266 269 266 263 263 253 243 244 244 243 242 240 240 240 235 233 234 231 230 233 230 226 210 201 210 209 203 204 203 198 206 215 213 220 224 220 220 219 217 223 226 228 233 235 238 247 252 251 252 250 252 261 262 260 255 251 250 249 245 239 238 239 232 228 228 225 223 226 226 218 206 198 197 202
259 261 261 262 263 264 266 268 269 271 271 269 265 262 264 266 262 261 262 256 249 250 248 244 240 238 237 235 232 230 231 228 227 229 229 226 210 201 210 209 201 201 209 212 209 205 215 226 222 220 226 226 228 229 224 226 233 235 236 241 247 248 251 251 247 257 264 260 251 253 259 254 248 242 242 242 235 229 230 229 228 229 230 223 212 206 203 205
263 263 263 264 263 265 265 266 268 268 267 264 258 259 260 257 254 255 262 270 276 252 240 234 232 237 235 231 229 228 229 227 223 225 227 223 215 211 214 209 201 203 213 216 214 211 220 223 214 227 236 229 224 227 224 229 238 240 239 241 247 249 256 260 258 268 275 265 251 250 261 257 247 241 241 241 238 233 232 232 231 232 233 227 218 212 208 206
265 264 264 263 263 264 262 263 265 262 261 257 252 254 252 247 244 247 262 291 303 226 214 210 215 234 239 233 232 226 225 224 219 221 223 219 219 218 210 204 202 210 218 215 216 220 230 235 229 234 240 223 215 227 227 229 239 245 245 247 254 255 259 264 258 261 267 257 238 230 248 252 239 235 234 232 236 237 234 234 234 235 238 236 226 217 213 209
264 263 263 261 262 262 260 260 258 258 256 248 246 244 240 237 231 236 266 300 262 194 193 195 198 230 241 239 241 223 218 221 217 217 219 216 217 212 201 204 208 214 217 210 216 222 228 240 237 224 223 216 215 228 227 225 234 244 249 252 255 250 251 251 238 233 246 247 218 210 235 252 233 226 226 223 231 235 234 237 237 238 241 241 235 227 220 217
262 261 261 260 259 257 257 256 252 253 248 239 239 231 224 222 211 206 252 264 212 187 191 196 193 221 246 241 226 193 196 216 215 212 213 211 212 209 202 209 213 211 206 198 211 225 222 230 228 211 208 213 215 223 223 219 226 238 241 231 233 238 233 230 223 223 236 253 222 206 226 256 251 235 223 220 227 230 231 237 239 239 242 241 240 238 232 229
261 259 260 259 255 251 251 252 249 246 239 233 226 215 210 203 189 157 185 242 179 167 184 195 190 201 253 228 189 178 186 202 207 210 209 205 207 208 203 209 214 214 211 203 209 232 231 232 233 220 215 220 220 222 221 216 220 231 226 206 213 226 219 215 216 220 228 243 235 214 212 246 257 241 222 222 230 233 235 238 239 240 240 239 239 240 236 233
259 259 260 257 250 246 247 250 245 236 232 224 210 205 200 187 174 149 203 252 176 160 173 175 180 186 295 226 190 185 187 183 188 206 205 203 207 205 200 206 211 213 218 215 218 242 242 234 232 221 219 227 229 228 225 216 217 225 220 218 227 213 208 205 209 219 218 229 241 223 208 230 256 243 224 223 234 239 238 240 244 244 240 235 233 233 230 227
259 259 257 250 246 243 242 243 230 222 221 208 195 196 189 172 166 173 213 215 159 167 188 180 175 173 22 219 198 193 185 176 186 197 195 201 208 206 202 202 201 203 210 214 223 240 242 230 217 205 210 222 228 226 220 212 213 220 219 220 217 200 198 199 208 221 218 229 241 224 207 226 259 252 230 219 229 239 244 251 259 257 248 236 230 229 225 221
259 255 247 244 242 235 230 226 214 209 204 193 187 187 180 167 178 212 216 188 167 163 183 189 186 169 59 127 185 201 192 183 185 184 187 194 199 201 202 196 194 198 204 213 224 232 234 230 217 206 206 209 212 213 210 207 207 211 215 214 207 194 194 203 208 216 229 236 228 211 210 230 249 253 239 217 226 241 255 269 275 267 255 237 228 225 221 219
253 243 238 237 230 219 217 216 207 201 193 186 185 179 171 172 202 221 210 184 196 181 172 190 193 177 133 144 173 199 197 195 195 183 187 191 192 196 198 193 190 192 200 209 214 219 225 227 223 219 215 203 196 202 204 205 208 211 214 216 215 201 192 212 211 209 233 224 157 174 210 232 245 249 251 249 248 255 265 275 279 269 257 242 227 220 216 217
240 234 232 227 217 213 216 214 207 199 189 185 184 174 172 196 220 211 200 180 194 180 173 194 200 189 170 154 189 199 193 198 198 186 187 191 195 199 201 201 197 197 207 206 203 211 217 220 220 222 223 210 199 200 199 202 210 213 211 212 220 216 197 218 220 216 233 213 154 198 237 244 247 244 244 251 256 261 265 271 274 264 253 245 229 217 215 216
232 230 228 223 216 214 217 218 210 197 190 189 182 171 180 215 221 200 202 212 218 204 200 216 207 196 168 157 204 193 181 193 194 186 186 192 198 201 202 205 201 202 212 203 205 217 217 218 215 213 218 213 205 204 201 204 209 209 213 220 228 235 230 230 238 244 245 222 173 191 229 250 247 222 225 244 249 251 256 265 269 256 244 238 229 221 219 220
227 226 227 225 221 218 216 219 212 199 194 190 181 179 195 214 209 195 204 227 236 230 250 258 226 212 197 187 212 182 173 184 187 184 190 196 200 203 203 204 201 201 207 204 204 213 222 236 221 206 208 207 207 207 206 214 213 204 211 225 232 237 239 248 280 297 285 269 210 198 228 254 257 232 235 245 249 243 248 259 265 252 231 227 225 223 221 222
223 225 227 226 224 219 216 218 212 201 195 187 183 193 209 210 197 203 208 225 239 231 250 268 232 219 210 195 200 188 185 187 183 186 194 196 202 205 205 205 204 203 204 204 198 198 217 228 213 208 203 195 202 205 206 217 217 202 209 222 227 231 235 247 261 257 264 272 233 216 241 241 222 246 254 260 267 248 249 265 271 276 245 222 222 223 221 219
220 223 224 224 220 211 209 213 207 199 192 185 189 203 215 216 214 219 221 228 239 233 255 280 226 216 213 195 185 184 203 196 190 195 195 190 197 204 202 202 207 207 205 208 212 213 223 222 196 203 198 189 193 197 205 216 215 205 215 221 219 222 231 240 243 221 226 248 232 223 246 242 222 219 239 261 267 247 253 272 272 272 261 222 213 217 212 205
215 215 215 215 206 194 195 201 197 190 184 185 200 213 218 223 229 231 233 241 251 254 268 275 246 226 205 201 195 182 205 201 198 204 201 193 194 198 198 202 207 207 205 213 222 221 227 231 197 187 196 197 195 196 204 212 214 214 220 220 217 221 223 221 230 239 235 244 243 227 237 246 241 203 190 247 264 244 242 255 270 275 268 234 213 209 198 191
204 200 205 202 191 184 182 184 186 180 180 188 205 219 222 228 236 238 241 248 256 257 254 253 239 225 215 220 233 197 196 198 202 208 207 203 204 201 197 201 207 208 207 212 220 221 222 231 210 181 192 200 196 204 209 207 212 218 222 225 226 231 231 221 223 236 244 250 249 237 227 219 213 193 195 241 271 260 239 239 268 287 292 282 235 231 231 222
190 183 204 200 182 180 176 173 175 172 181 196 206 217 224 230 240 245 245 245 245 234 232 239 228 228 247 243 237 201 191 195 208 211 212 207 206 209 200 196 201 211 212 211 215 218 216 224 218 180 186 200 197 205 212 208 208 213 219 224 221 221 231 239 233 232 249 262 249 247 236 116 164 218 217 233 251 257 230 230 246 256 267 285 252 231 234 233
174 171 207 198 176 176 173 170 177 176 185 204 212 219 223 226 238 246 247 243 237 224 219 223 219 225 244 234 225 232 217 224 219 213 215 208 206 213 204 195 198 209 214 211 212 215 212 217 222 202 195 205 199 199 209 212 211 213 221 225 223 221 222 229 229 223 238 255 261 266 266 115 204 240 228 228 229 214 197 221 238 235 233 235 227 226 228 227
163 171 201 191 177 178 174 183 199 189 189 207 217 222 222 224 233 243 250 246 237 232 222 217 216 220 232 232 231 266 270 247 230 218 217 211 210 214 203 194 197 200 203 206 211 215 211 211 223 223 216 213 207 208 214 217 216 218 224 226 227 228 226 233 240 221 224 236 247 261 259 167 246 265 249 231 223 205 202 209 234 231 217 218 217 213 215 222
165 188 200 187 182 184 174 186 209 200 203 218 225 228 227 227 227 232 244 243 233 230 222 217 218 217 221 221 213 257 296 255 233 223 216 210 216 219 213 208 211 210 205 204 214 216 213 213 222 226 225 225 229 231 236 238 223 214 218 221 224 227 227 235 251 254 241 231 230 247 237 172 241 274 273 223 213 213 215 213 226 231 209 205 206 207 215 226
176 191 197 191 187 189 184 182 194 208 223 231 236 239 239 237 231 224 228 232 230 226 220 217 217 215 217 218 212 231 285 249 229 233 211 208 222 219 214 215 215 211 210 213 218 216 210 211 218 219 216 212 214 225 231 231 218 207 219 223 221 224 224 229 241 252 253 240 232 249 246 134 221 266 202 219 226 224 223 212 210 205 187 196 206 216 234 245
179 182 189 196 189 190 202 202 197 207 226 232 234 238 240 239 236 229 225 228 228 226 221 216 216 216 218 222 226 243 256 229 220 249 219 205 223 214 204 207 208 204 207 213 218 218 209 204 211 221 227 210 208 218 213 209 203 204 223 228 222 222 223 224 232 238 241 233 224 237 223 143 190 207 173 222 238 231 229 214 193 184 183 203 221 228 247 266
176 184 187 192 193 196 213 213 199 197 219 224 223 238 238 231 235 229 219 219 223 221 219 217 218 219 219 223 231 244 249 231 217 229 227 214 226 213 199 200 204 201 198 201 206 210 207 202 208 222 250 254 258 250 203 193 190 197 214 224 222 221 218 216 226 237 242 234 223 227 217 171 181 202 208 221 227 224 223 211 194 189 193 206 214 220 241 277
171 194 187 179 192 203 213 219 203 205 222 197 191 211 206 193 222 222 210 205 210 211 214 220 224 224 223 225 231 236 242 238 226 223 222 221 227 216 204 206 210 205 198 192 195 202 204 206 210 217 243 267 255 246 202 188 191 198 206 213 212 214 213 213 226 237 240 243 232 213 193 181 192 216 224 220 213 208 211 209 197 192 196 201 199 204 221 242
177 197 190 176 179 190 203 234 234 219 226 187 190 189 142 125 178 201 202 200 200 197 199 218 229 229 226 223 226 237 242 239 235 232 226 221 221 214 203 203 207 209 209 205 199 203 207 214 218 220 233 248 230 223 215 203 202 205 210 214 210 211 213 215 228 233 230 244 232 163 174 200 217 224 223 217 212 210 210 205 196 196 199 194 190 190 198 211
187 193 191 180 183 189 201 232 232 141 169 162 162 157 127 115 147 177 183 182 193 195 189 204 233 238 230 223 223 233 236 230 231 236 231 225 228 221 207 202 198 198 208 212 208 208 215 224 230 232 239 249 244 214 205 212 217 216 217 221 218 215 216 219 230 234 231 229 209 179 202 224 225 220 215 212 215 222 220 205 197 200 195 182 182 183 179 186
188 193 192 182 193 197 193 257 102 130 167 145 138 163 147 115 126 172 174 174 184 200 185 193 234 244 236 230 228 231 233 232 234 241 237 230 235 235 221 216 211 198 202 210 207 201 207 225 230 228 229 232 230 214 182 176 206 216 214 217 217 209 213 219 222 224 226 225 218 217 225 221 213 213 211 205 194 185 205 212 197 190 189 181 176 173 172 177
189 195 189 178 201 197 137 133 132 138 174 168 164 191 169 115 146 166 158 181 192 207 211 212 231 241 240 237 234 234 235 235 238 245 245 239 241 240 226 221 224 222 216 214 204 194 194 208 208 198 192 199 204 202 176 147 172 199 191 192 198 189 195 209 207 200 202 208 203 207 214 208 206 206 205 206 197 185 202 218 191 169 185 185 174 169 178 194
193 199 182 172 195 196 151 157 132 136 191 197 178 188 185 177 219 154 97 167 195 212 230 231 232 232 226 221 226 235 234 231 235 240 239 244 245 237 232 227 225 225 219 212 205 198 200 204 200 197 191 184 194 200 185 167 179 193 171 150 168 179 191 200 204 205 202 187 165 181 207 205 204 206 206 210 202 187 201 223 199 186 189 176 166 169 179 185
Height
3100 3101 3101 3101 3101 3102 3102 3102 3103 3103 3104 3104 3104 3105 3105 3105 3105 3106 3107 3107 3108 3109 3109 3109 3110 3111 3112 3113 3113 3114 3114 3114 3114 3114 3115 3116 3116 3117 3117 3117 3118 3119 3119 3119 3120 3121 3122 3123 3124 3124 3125 3126 3127 3128 3129 3130 3131 3132 3134 3135 3135 3135 3135 3134 3134 3134 3134 3135 3134 3134 3134 3134 3135 3134 3134 3134 3134 3134 3135 3136 3136 3137 3137 3138 3139 3140 3141 3142
3099 3099 3099 3100 3100 3100 3100 3101 3101 3102 3102 3103 3103 3103 3103 3103 3104 3104 3105 3106 3106 3107 3107 3108 3108 3109 3110 3111 3111 3112 3112 3112 3113 3113 3113 3114 3115 3116 3116 3116 3117 3118 3118 3118 3119 3120 3121 3122 3123 3123 3124 3125 3127 3127 3128 3129 3130 3132 3133 3133 3133 3133 3132 3131 3132 3132 3133 3133 3133 3133 3134 3134 3134 3134 3133 3134 3135 3134 3135 3135 3135 3136 3137 3138 3139 3139 3141 3142
3097 3097 3098 3098 3098 3098 3099 3099 3100 3100 3101 3101 3101 3102 3102 3102 3102 3103 3103 3104 3104 3105 3105 3106 3107 3108 3109 3109 3110 3110 3110 3111 3111 3111 3111 3112 3113 3114 3115 3115 3116 3116 3117 3118 3118 3119 3120 3121 3122 3123 3124 3124 3126 3126 3127 3128 3129 3130 3131 3132 3133 3131 3130 3130 3131 3131 3131 3132 3132 3133 3133 3134 3134 3133 3133 3134 3134 3134 3134 3135 3135 3136 3137 3138 3139 3139 3140 3141
3095 3096 3096 3096 3097 3097 3097 3097 3098 3098 3099 3100 3100 3100 3100 3100 3101 3101 3102 3102 3103 3103 3104 3104 3105 3106 3107 3108 3108 3109 3109 3109 3109 3109 3110 3110 3112 3113 3113 3114 3115 3115 3116 3117 3117 3118 3119 3120 3121 3122 3123 3124 3124 3125 3127 3127 3129 3129 3129 3131 3131 3129 3130 3130 3129 3130 3130 3131 3132 3132 3133 3134 3134 3133 3133 3133 3134 3135 3135 3135 3135 3135 3136 3137 3138 3139 3140 3141
3093 3094 3094 3095 3095 3095 3096 3096 3096 3097 3097 3098 3098 3098 3099 3099 3099 3100 3100 3101 3101 3102 3102 3103 3104 3105 3105 3106 3107 3107 3108 3109 3108 3108 3108 3109 3110 3111 3112 3113 3113 3114 3115 3116 3116 3117 3118 3119 3120 3121 3122 3123 3123 3125 3125 3126 3127 3127 3127 3128 3127 3127 3130 3129 3128 3129 3130 3130 3131 3131 3132 3133 3133 3133 3133 3132 3134 3135 3135 3134 3134 3134 3135 3136 3137 3138 3139 3140
3092 3092 3092 3093 3094 3094 3094 3094 3094 3095 3095 3096 3096 3097 3097 3098 3098 3098 3099 3099 3100 3101 3101 3102 3102 3103 3104 3105 3105 3106 3107 3108 3106 3107 3107 3107 3109 3110 3110 3111 3112 3113 3114 3115 3115 3116 3117 3118 3119 3120 3121 3122 3123 3124 3124 3125 3126 3126 3127 3127 3126 3127 3128 3128 3128 3128 3129 3130 3130 3130 3131 3131 3132 3132 3132 3132 3132 3133 3133 3133 3133 3133 3134 3134 3136 3136 3137 3138
3090 3090 3091 3091 3092 3092 3093 3093 3093 3093 3094 3094 3095 3095 3096 3096 3096 3097 3097 3098 3099 3099 3100 3100 3101 3102 3102 3103 3104 3104 3105 3106 3105 3106 3106 3106 3107 3108 3109 3110 3111 3112 3113 3113 3114 3115 3116 3117 3118 3119 3120 3121 3122 3123 3124 3125 3125 3125 3126 3125 3125 3125 3126 3126 3127 3127 3128 3128 3129 3129 3130 3130 3131 3132 3132 3132 3132 3132 3132 3133 3133 3133 3133 3133 3134 3135 3135 3137
3088 3088 3089 3089 3090 3090 3091 3091 3091 3092 3092 3092 3093 3094 3094 3095 3095 3096 3096 3097 3097 3098 3098 3099 3099 3100 3101 3101 3102 3103 3103 3104 3104 3105 3105 3105 3106 3107 3108 3108 3109 3110 3111 3112 3113 3114 3115 3116 3117 3118 3120 3121 3121 3122 3123 3123 3123 3123 3124 3124 3124 3124 3124 3125 3126 3126 3127 3127 3128 3128 3128 3130 3130 3130 3131 3131 3131 3132 3132 3133 3132 3132 3132 3133 3133 3134 3135 3136
3086 3087 3087 3088 3088 3089 3089 3090 3090 3090 3090 3091 3091 3092 3093 3093 3093 3094 3095 3095 3096 3096 3097 3097 3098 3099 3099 3100 3101 3101 3101 3102 3103 3103 3104 3104 3105 3105 3106 3107 3108 3109 3110 3111 3112 3113 3114 3115 3116 3117 3119 3119 3119 3120 3121 3123 3123 3122 3122 3123 3123 3123 3123 3124 3124 3125 3125 3126 3127 3127 3127 3129 3129 3130 3130 3131 3131 3131 3132 3132 3131 3131 3132 3132 3133 3134 3135 3136
3084 3085 3085 3086 3087 3087 3087 3088 3088 3088 3088 3089 3089 3090 3091 3092 3092 3093 3093 3094 3094 3095 3095 3096 3096 3097 3098 3098 3099 3100 3099 3100 3101 3102 3102 3103 3103 3104 3105 3106 3107 3108 3109 3110 3111 3112 3113 3114 3115 3116 3117 3117 3118 3119 3120 3121 3122 3120 3121 3121 3121 3121 3121 3122 3123 3123 3124 3125 3126 3126 3126 3128 3128 3129 3130 3130 3130 3131 3131 3131 3131 3131 3131 3132 3133 3134 3135 3136
3082 3083 3083 3084 3085 3085 3086 3086 3086 3086 3087 3087 3088 3089 3089 3090 3091 3091 3092 3092 3093 3093 3094 3094 3095 3095 3096 3096 3097 3097 3097 3098 3099 3100 3101 3101 3102 3103 3104 3104 3105 3106 3107 3108 3110 3111 3112 3113 3114 3115 3116 3116 3117 3118 3119 3119 3119 3119 3119 3120 3120 3120 3120 3121 3122 3123 3123 3124 3125 3125 3125 3126 3127 3128 3129 3129 3129 3130 3130 3130 3130 3130 3131 3132 3132 3134 3135 3135
3080 3081 3082 3082 3083 3083 3084 3084 3084 3084 3085 3085 3086 3087 3088 3089 3089 3090 3091 3091 3091 3092 3092 3092 3093 3093 3094 3095 3095 3095 3096 3097 3097 3098 3099 3099 3100 3101 3102 3102 3103 3105 3106 3107 3108 3109 3111 3112 3113 3114 3115 3116 3117 3118 3117 3117 3118 3118 3118 3120 3121 3120 3120 3120 3121 3122 3122 3123 3123 3123 3124 3125 3126 3127 3127 3127 3128 3129 3129 3129 3130 3130 3131 3131 3132 3133 3134 3134
3078 3079 3080 3080 3081 3081 3082 3082 3082 3082 3083 3084 3084 3085 3086 3087 3088 3088 3089 3090 3090 3090 3090 3091 3091 3092 3092 3093 3093 3094 3094 3095 3095 3096 3097 3098 3099 3099 3100 3101 3102 3103 3104 3106 3107 3108 3109 3111 3112 3113 3113 3115 3117 3116 3116 3116 3117 3118 3118 3119 3121 3121 3121 3120 3120 3121 3121 3121 3121 3123 3124 3123 3125 3126 3125 3126 3127 3127 3128 3128 3129 3130 3130 3131 3132 3133 3133 3133
3076 3077 3078 3078 3079 3080 3080 3080 3080 3080 3081 3082 3083 3084 3085 3085 3086 3086 3087 3088 3088 3088 3089 3089 3090 3090 3091 3091 3092 3092 3093 3093 3094 3094 3095 3096 3097 3098 3099 3099 3100 3101 3102 3104 3105 3107 3108 3109 3110 3111 3112 3114 3115 3114 3115 3116 3116 3118 3119 3118 3120 3121 3120 3118 3119 3120 3121 3120 3120 3122 3123 3122 3124 3124 3123 3125 3126 3126 3127 3127 3128 3129 3130 3131 3132 3132 3132 3132
3074 3075 3076 3076 3077 3077 3078 3078 3078 3079 3079 3080 3081 3082 3083 3084 3084 3085 3085 3086 3086 3087 3087 3088 3088 3089 3089 3089 3090 3090 3091 3092 3092 3093 3094 3095 3096 3097 3097 3098 3099 3099 3101 3103 3104 3106 3107 3108 3109 3110 3111 3112 3113 3114 3116 3116 3116 3118 3118 3118 3119 3119 3118 3118 3118 3119 3120 3119 3119 3122 3122 3122 3122 3122 3122 3123 3124 3125 3126 3126 3127 3128 3129 3130 3131 3131 3132 3132
3072 3073 3073 3074 3074 3075 3076 3076 3077 3077 3078 3078 3079 3080 3081 3082 3082 3083 3083 3084 3084 3085 3086 3086 3087 3087 3087 3088 3088 3089 3089 3090 3091 3092 3092 3093 3094 3095 3096 3097 3097 3098 3100 3102 3103 3104 3105 3107 3108 3109 3110 3111 3113 3115 3116 3117 3116 3117 3117 3117 3117 3118 3118 3118 3117 3117 3118 3119 3119 3120 3121 3121 3121 3121 3121 3122 3123 3124 3125 3125 3126 3127 3128 3129 3130 3130 3131 3131
3070 3071 3071 3072 3072 3073 3074 3075 3075 3075 3076 3077 3078 3078 3079 3080 3080 3080 3081 3082 3082 3083 3084 3084 3085 3086 3086 3086 3086 3087 3087 3088 3089 3090 3091 3092 3092 3094 3095 3095 3096 3097 3099 3101 3102 3103 3104 3105 3106 3108 3109 3111 3113 3114 3115 3115 3114 3115 3115 3116 3116 3117 3117 3117 3117 3117 3117 3118 3119 3119 3119 3120 3120 3120 3120 3120 3121 3122 3123 3124 3125 3125 3127 3127 3128 3129 3130 3130
3069 3069 3069 3070 3071 3071 3072 3073 3073 3073 3074 3075 3076 3076 3077 3077 3078 3078 3079 3079 3080 3081 3082 3082 3083 3084 3084 3084 3084 3085 3085 3086 3087 3088 3089 3090 3091 3092 3093 3094 3095 3096 3098 3100 3101 3102 3103 3104 3106 3108 3108 3109 3110 3112 3113 3112 3112 3113 3114 3115 3115 3115 3116 3116 3116 3116 3116 3118 3118 3119 3119 3119 3119 3119 3119 3119 3120 3121 3122 3122 3123 3124 3125 3126 3127 3128 3128 3129
3067 3067 3067 3068 3069 3070 3070 3071 3071 3071 3072 3073 3074 3074 3074 3075 3075 3076 3076 3077 3077 3078 3079 3080 3081 3082 3082 3081 3081 3082 3084 3085 3085 3086 3088 3089 3090 3091 3092 3093 3094 3096 3098 3099 3100 3101 3102 3104 3105 3106 3107 3107 3107 3109 3111 3110 3110 3112 3112 3113 3114 3114 3114 3115 3115 3115 3115 3116 3117 3117 3117 3117 3118 3118 3118 3118 3118 3119 3120 3121 3122 3123 3124 3125 3126 3126 3127 3128
3065 3065 3066 3066 3067 3068 3068 3069 3069 3069 3070 3071 3072 3072 3072 3072 3073 3073 3073 3074 3074 3075 3076 3076 3078 3079 3079 3079 3080 3081 3082 3083 3084 3085 3086 3088 3089 3090 3091 3093 3094 3096 3098 3100 3100 3100 3101 3103 3103 3104 3105 3105 3106 3107 3109 3109 3109 3110 3111 3112 3113 3113 3113 3113 3113 3114 3114 3114 3115 3115 3116 3116 3116 3117 3117 3116 3117 3118 3119 3119 3120 3121 3122 3123 3124 3124 3125 3126
3063 3063 3064 3064 3065 3066 3066 3067 3067 3067 3068 3069 3070 3070 3070 3070 3071 3071 3070 3071 3071 3072 3073 3073 3075 3076 3076 3076 3079 3080 3081 3082 3083 3083 3084 3086 3088 3089 3090 3091 3093 3095 3097 3099 3099 3098 3100 3102 3101 3103 3104 3105 3104 3105 3106 3107 3108 3109 3111 3111 3111 3111 3112 3111 3112 3113 3113 3112 3113 3114 3114 3114 3114 3115 3116 3115 3115 3116 3117 3118 3119 3120 3121 3122 3122 3123 3124 3125
3061 3062 3062 3063 3063 3064 3064 3064 3065 3065 3066 3067 3068 3068 3068 3068 3068 3068 3068 3068 3069 3069 3069 3070 3071 3072 3073 3074 3077 3077 3078 3080 3081 3081 3082 3084 3086 3088 3089 3090 3093 3095 3096 3097 3097 3098 3099 3099 3100 3102 3102 3101 3102 3103 3105 3106 3107 3108 3109 3110 3110 3110 3110 3109 3110 3111 3111 3111 3112 3112 3112 3112 3112 3113 3113 3113 3113 3114 3115 3116 3117 3118 3119 3120 3121 3122 3123 3123
3059 3060 3060 3061 3061 3062 3062 3062 3063 3063 3064 3065 3066 3065 3065 3066 3066 3066 3066 3066 3067 3067 3067 3068 3069 3069 3070 3071 3073 3073 3075 3078 3080 3080 3081 3083 3085 3087 3088 3089 3092 3094 3094 3094 3096 3098 3098 3098 3099 3100 3099 3099 3101 3103 3104 3105 3106 3107 3108 3108 3108 3108 3108 3108 3109 3109 3109 3110 3110 3110 3110 3110 3110 3110 3110 3110 3110 3112 3113 3114 3115 3116 3117 3119 3120 3121 3122 3123
3058 3058 3058 3059 3059 3060 3060 3060 3061 3061 3062 3063 3063 3063 3063 3064 3064 3065 3064 3064 3065 3065 3065 3066 3066 3066 3067 3068 3069 3071 3073 3075 3078 3078 3079 3081 3083 3085 3086 3088 3091 3093 3092 3093 3095 3096 3097 3096 3097 3097 3097 3099 3101 3101 3103 3105 3105 3105 3106 3106 3106 3107 3107 3108 3108 3108 3108 3108 3107 3109 3109 3107 3106 3107 3107 3108 3108 3109 3111 3112 3113 3114 3115 3117 3118 3119 3120 3121
3056 3056 3056 3057 3057 3058 3058 3058 3059 3059 3060 3061 3061 3061 3062 3062 3063 3063 3062 3063 3063 3063 3064 3064 3065 3065 3065 3066 3067 3069 3070 3072 3074 3075 3077 3080 3082 3083 3085 3087 3089 3091 3091 3093 3094 3095 3096 3094 3094 3096 3096 3099 3100 3101 3102 3103 3104 3104 3103 3103 3104 3105 3106 3107 3107 3107 3107 3105 3104 3107 3106 3102 3102 3103 3105 3106 3106 3106 3108 3109 3110 3112 3113 3114 3116 3117 3117 3119
3054 3054 3054 3055 3055 3055 3056 3056 3057 3058 3058 3059 3059 3060 3060 3061 3061 3061 3061 3062 3063 3063 3063 3063 3064 3064 3064 3065 3065 3067 3069 3070 3071 3073 3075 3078 3080 3082 3085 3086 3087 3089 3091 3092 3093 3094 3094 3092 3093 3095 3096 3097 3099 3100 3101 3101 3103 3103 3102 3102 3102 3103 3104 3105 3105 3106 3105 3103 3102 3105 3104 3099 3098 3101 3102 3104 3104 3104 3106 3106 3107 3109 3111 3112 3113 3115 3116 3118
3052 3052 3052 3053 3053 3054 3054 3054 3055 3056 3056 3057 3058 3058 3059 3059 3060 3060 3061 3061 3061 3061 3062 3062 3063 3062 3062 3063 3063 3065 3067 3067 3068 3070 3072 3075 3078 3080 3083 3084 3085 3087 3088 3090 3091 3091 3090 3090 3091 3093 3095 3096 3098 3098 3099 3099 3101 3101 3100 3100 3101 3102 3103 3103 3104 3104 3102 3102 3101 3102 3103 3100 3097 3099 3100 3101 3102 3103 3103 3103 3105 3107 3108 3109 3111 3113 3114 3116
3050 3050 3050 3051 3051 3052 3052 3052 3053 3054 3055 3056 3056 3057 3058 3058 3059 3060 3061 3061 3058 3059 3061 3061 3061 3061 3061 3062 3062 3063 3064 3065 3067 3069 3070 3073 3076 3078 3081 3083 3084 3085 3086 3088 3089 3088 3088 3089 3090 3092 3094 3095 3096 3097 3098 3098 3099 3100 3098 3099 3100 3100 3101 3101 3102 3102 3101 3101 3099 3099 3102 3100 3095 3096 3098 3099 3100 3100 3101 3102 3103 3104 3105 3106 3108 3109 3111 3113
3047 3048 3048 3049 3049 3050 3050 3050 3051 3052 3053 3054 3055 3056 3056 3058 3058 3059 3061 3060 3057 3058 3059 3060 3060 3061 3061 3061 3061 3062 3063 3064 3066 3066 3068 3071 3073 3076 3079 3081 3084 3085 3085 3086 3088 3087 3087 3088 3089 3090 3092 3093 3094 3096 3097 3097 3098 3098 3097 3098 3099 3099 3099 3100 3100 3100 3100 3100 3096 3095 3099 3097 3092 3092 3096 3097 3098 3099 3098 3099 3099 3100 3101 3102 3103 3105 3107 3109
3046 3046 3047 3047 3047 3048 3048 3049 3050 3050 3052 3053 3054 3055 3056 3057 3058 3060 3061 3059 3057 3058 3058 3059 3060 3060 3060 3060 3061 3061 3062 3064 3064 3064 3067 3070 3072 3074 3077 3079 3082 3084 3085 3086 3087 3086 3085 3086 3087 3089 3090 3092 3093 3094 3095 3096 3096 3097 3097 3098 3098 3098 3099 3099 3098 3098 3099 3096 3093 3093 3096 3097 3091 3090 3093 3095 3096 3097 3095 3095 3095 3095 3095 3096 3098 3101 3104 3105
3044 3044 3045 3045 3046 3046 3047 3047 3048 3049 3050 3051 3053 3054 3055 3057 3058 3059 3058 3056 3056 3057 3058 3059 3059 3060 3060 3060 3061 3061 3062 3064 3064 3064 3066 3068 3070 3073 3075 3077 3080 3082 3084 3084 3085 3084 3084 3085 3086 3087 3088 3089 3091 3092 3093 3094 3095 3095 3096 3097 3096 3096 3097 3097 3097 3098 3095 3091 3091 3092 3095 3096 3092 3089 3091 3092 3094 3094 3092 3092 3092 3091 3091 3092 3094 3097 3100 3102
3042 3043 3043 3044 3044 3045 3045 3046 3047 3048 3049 3051 3052 3053 3055 3057 3058 3057 3055 3055 3056 3057 3057 3058 3058 3059 3059 3059 3060 3060 3061 3063 3064 3064 3065 3067 3069 3071 3073 3075 3077 3079 3080 3081 3082 3083 3083 3084 3085 3086 3086 3087 3089 3091 3091 3092 3093 3094 3095 3095 3093 3092 3094 3094 3092 3093 3091 3088 3090 3093 3094 3094 3091 3089 3091 3091 3091 3091 3090 3090 3090 3089 3089 3090 3091 3094 3097 3099
3041 3041 3042 3042 3043 3043 3044 3045 3046 3047 3049 3050 3051 3053 3055 3057 3055 3054 3054 3055 3055 3055 3055 3056 3057 3058 3059 3059 3059 3059 3061 3062 3063 3064 3066 3067 3069 3070 3072 3073 3075 3076 3077 3078 3080 3081 3081 3082 3084 3085 3085 3085 3087 3088 3089 3090 3091 3092 3092 3092 3089 3088 3090 3091 3087 3086 3086 3087 3090 3092 3093 3091 3088 3088 3089 3090 3089 3089 3088 3088 3088 3088 3088 3089 3090 3092 3095 3097
3039 3040 3040 3041 3042 3042 3043 3044 3045 3046 3048 3049 3051 3053 3055 3055 3053 3053 3054 3055 3054 3054 3055 3055 3056 3057 3058 3059 3058 3058 3060 3061 3062 3064 3065 3066 3068 3069 3070 3071 3073 3075 3076 3077 3078 3078 3078 3079 3079 3081 3082 3082 3083 3085 3086 3088 3089 3090 3090 3090 3088 3085 3087 3087 3084 3083 3084 3086 3089 3092 3091 3087 3085 3086 3087 3088 3087 3086 3086 3086 3087 3087 3087 3088 3090 3092 3094 3096
3038 3039 3039 3040 3041 3041 3042 3043 3044 3045 3047 3048 3050 3052 3053 3053 3052 3053 3054 3053 3053 3054 3054 3055 3055 3057 3058 3058 3057 3057 3059 3059 3060 3062 3064 3065 3066 3066 3068 3069 3070 3073 3075 3075 3076 3076 3077 3076 3076 3078 3079 3080 3081 3083 3085 3087 3087 3087 3088 3088 3086 3085 3085 3085 3085 3084 3085 3085 3087 3088 3087 3085 3085 3086 3085 3086 3085 3085 3085 3085 3086 3087 3087 3088 3089 3091 3093 3095
3037 3038 3038 3039 3040 3040 3041 3042 3043 3044 3046 3047 3050 3051 3052 3051 3051 3052 3052 3052 3053 3053 3054 3054 3055 3056 3057 3057 3057 3057 3057 3058 3059 3061 3062 3063 3064 3065 3066 3067 3068 3070 3072 3073 3074 3075 3076 3075 3075 3076 3077 3078 3080 3082 3084 3085 3085 3085 3086 3085 3084 3084 3085 3085 3085 3086 3087 3086 3084 3084 3084 3084 3085 3086 3085 3085 3084 3084 3084 3085 3085 3086 3087 3088 3089 3090 3092 3093
3036 3037 3037 3038 3039 3040 3040 3041 3042 3043 3045 3047 3049 3050 3050 3050 3050 3051 3051 3052 3052 3053 3054 3054 3055 3055 3056 3056 3056 3057 3057 3057 3058 3059 3060 3061 3062 3063 3065 3066 3066 3068 3070 3072 3073 3073 3074 3074 3074 3075 3076 3076 3078 3080 3082 3082 3083 3084 3084 3083 3083 3084 3085 3085 3084 3084 3084 3083 3082 3082 3083 3081 3082 3084 3085 3085 3084 3083 3084 3085 3085 3086 3086 3087 3089 3090 3092 3093
3035 3036 3037 3038 3038 3039 3040 3040 3041 3043 3044 3046 3048 3048 3048 3049 3049 3050 3051 3051 3052 3053 3054 3054 3054 3054 3055 3055 3055 3056 3056 3056 3057 3058 3059 3060 3060 3061 3063 3064 3065 3066 3069 3071 3072 3072 3073 3073 3073 3074 3075 3075 3077 3078 3079 3080 3081 3081 3082 3082 3082 3082 3082 3083 3083 3082 3081 3081 3080 3080 3080 3079 3079 3082 3084 3084 3083 3083 3084 3085 3086 3086 3086 3087 3088 3089 3091 3092
3034 3036 3036 3037 3038 3039 3039 3040 3041 3042 3044 3046 3047 3047 3047 3048 3048 3049 3050 3050 3051 3052 3053 3054 3053 3054 3054 3054 3055 3055 3055 3055 3056 3056 3057 3058 3059 3060 3061 3063 3064 3065 3067 3070 3071 3072 3073 3073 3071 3072 3074 3074 3076 3077 3077 3078 3079 3080 3081 3081 3081 3081 3080 3080 3080 3079 3078 3078 3079 3078 3076 3078 3080 3081 3083 3083 3082 3083 3084 3085 3086 3086 3086 3087 3087 3088 3089 3090
3034 3036 3036 3037 3037 3038 3039 3040 3041 3042 3044 3045 3046 3047 3046 3047 3047 3048 3049 3049 3050 3051 3052 3052 3053 3053 3054 3054 3054 3054 3054 3054 3055 3055 3056 3057 3058 3059 3060 3061 3063 3064 3065 3067 3070 3071 3072 3072 3071 3071 3073 3073 3074 3074 3075 3076 3077 3078 3079 3079 3079 3080 3079 3079 3078 3078 3077 3076 3076 3076 3075 3079 3081 3081 3081 3081 3082 3083 3084 3086 3086 3086 3086 3087 3087 3088 3088 3088
3034 3036 3036 3036 3037 3038 3039 3040 3041 3042 3044 3045 3045 3045 3045 3046 3047 3047 3047 3048 3048 3049 3050 3050 3051 3052 3052 3053 3053 3053 3053 3054 3054 3054 3055 3056 3057 3058 3058 3060 3061 3062 3064 3065 3068 3069 3070 3071 3071 3070 3071 3071 3071 3072 3073 3074 3075 3076 3077 3077 3077 3077 3078 3078 3076 3076 3077 3075 3075 3074 3075 3079 3081 3080 3080 3081 3081 3083 3084 3085 3086 3086 3087 3087 3087 3087 3087 3087
3034 3035 3036 3036 3037 3038 3039 3040 3041 3042 3043 3044 3044 3044 3044 3045 3046 3046 3046 3047 3047 3048 3048 3049 3050 3050 3051 3052 3053 3053 3053 3053 3053 3053 3054 3056 3056 3056 3057 3058 3060 3061 3063 3064 3066 3067 3068 3069 3070 3069 3069 3069 3070 3070 3071 3072 3073 3074 3075 3075 3076 3076 3076 3076 3074 3074 3076 3075 3076 3075 3075 3079 3080 3079 3080 3080 3080 3082 3083 3085 3085 3085 3086 3087 3087 3088 3087 3087
3034 3035 3035 3036 3037 3038 3039 3040 3041 3042 3042 3042 3042 3043 3043 3044 3045 3045 3045 3046 3046 3047 3048 3048 3049 3050 3050 3051 3051 3052 3052 3052 3052 3052 3054 3055 3054 3054 3055 3057 3058 3060 3062 3064 3064 3065 3066 3067 3068 3068 3068 3069 3069 3070 3071 3071 3072 3073 3073 3073 3074 3074 3074 3074 3073 3074 3074 3074 3075 3074 3074 3078 3079 3078 3079 3079 3079 3080 3082 3083 3084 3085 3086 3086 3086 3086 3086 3086
3034 3034 3035 3036 3036 3037 3039 3040 3041 3041 3041 3041 3041 3042 3042 3043 3043 3044 3044 3045 3045 3046 3047 3048 3048 3048 3049 3049 3050 3051 3051 3051 3052 3052 3053 3054 3053 3053 3055 3056 3057 3059 3060 3061 3062 3063 3065 3066 3066 3066 3066 3066 3068 3068 3069 3070 3070 3071 3071 3071 3072 3072 3073 3073 3074 3075 3074 3073 3075 3074 3073 3077 3078 3078 3079 3079 3079 3079 3080 3082 3083 3084 3085 3085 3085 3085 3085 3085
3034 3034 3035 3036 3036 3037 3038 3039 3040 3040 3040 3040 3041 3041 3041 3042 3042 3042 3043 3043 3044 3045 3045 3046 3047 3047 3048 3048 3049 3050 3050 3051 3051 3052 3052 3053 3052 3052 3054 3055 3056 3056 3057 3058 3061 3062 3063 3064 3064 3063 3061 3062 3064 3065 3065 3067 3069 3069 3069 3070 3070 3071 3071 3072 3073 3074 3072 3072 3074 3074 3075 3077 3078 3078 3078 3078 3078 3079 3079 3081 3082 3082 3083 3083 3083 3084 3083 3083
3033 3034 3035 3035 3036 3036 3037 3037 3038 3039 3039 3039 3040 3040 3041 3041 3041 3041 3041 3042 3043 3043 3044 3045 3045 3046 3047 3047 3048 3049 3050 3049 3050 3051 3052 3052 3052 3052 3053 3054 3054 3055 3056 3057 3059 3061 3062 3062 3062 3062 3061 3062 3063 3063 3063 3065 3067 3068 3068 3068 3069 3070 3070 3071 3072 3071 3070 3071 3072 3071 3072 3075 3076 3077 3077 3077 3078 3078 3079 3080 3081 3081 3082 3082 3082 3082 3082 3082
3032 3033 3034 3035 3036 3036 3037 3037 3037 3038 3038 3039 3040 3040 3041 3041 3041 3040 3041 3041 3041 3041 3042 3043 3044 3045 3046 3046 3047 3048 3049 3049 3049 3050 3051 3051 3051 3051 3052 3053 3054 3055 3056 3056 3058 3059 3060 3060 3060 3061 3062 3062 3064 3064 3064 3064 3066 3067 3067 3067 3068 3069 3069 3071 3071 3071 3071 3071 3071 3070 3071 3073 3074 3075 3076 3076 3077 3078 3079 3079 3080 3080 3081 3081 3081 3082 3082 3082
3032 3033 3033 3034 3036 3036 3037 3037 3037 3037 3037 3038 3039 3039 3040 3041 3040 3040 3040 3040 3040 3041 3042 3043 3043 3044 3044 3045 3046 3047 3048 3048 3049 3049 3050 3050 3050 3051 3051 3052 3053 3054 3054 3055 3056 3057 3059 3059 3059 3060 3061 3061 3063 3064 3064 3064 3064 3065 3066 3067 3067 3068 3069 3069 3070 3070 3071 3071 3071 3071 3071 3071 3072 3073 3074 3075 3076 3077 3078 3079 3079 3080 3080 3080 3081 3081 3082 3082
3031 3032 3033 3034 3035 3036 3036 3036 3036 3036 3037 3037 3038 3038 3039 3040 3040 3040 3039 3040 3041 3041 3041 3042 3043 3043 3043 3044 3045 3046 3047 3047 3048 3048 3049 3050 3050 3050 3050 3050 3051 3052 3052 3053 3054 3056 3057 3057 3058 3059 3060 3061 3063 3064 3064 3064 3064 3064 3065 3066 3066 3067 3067 3068 3068 3069 3069 3070 3070 3071 3070 3070 3071 3073 3074 3075 3076 3077 3078 3078 3079 3079 3080 3080 3081 3082 3082 3083
3031 3032 3032 3033 3034 3034 3035 3035 3035 3036 3037 3037 3038 3038 3038 3039 3039 3039 3039 3040 3041 3040 3041 3042 3042 3042 3042 3043 3044 3045 3045 3046 3047 3047 3048 3049 3050 3049 3049 3050 3050 3051 3051 3051 3053 3055 3057 3056 3056 3057 3059 3061 3063 3064 3064 3064 3063 3063 3064 3064 3065 3066 3067 3067 3067 3068 3068 3069 3069 3069 3069 3070 3071 3072 3073 3075 3076 3077 3077 3078 3079 3079 3080 3080 3081 3082 3083 3083
3030 3031 3032 3033 3034 3034 3034 3034 3035 3036 3037 3037 3037 3037 3037 3038 3038 3038 3038 3039 3039 3040 3040 3041 3041 3041 3042 3043 3043 3044 3044 3045 3046 3047 3048 3048 3049 3049 3049 3050 3050 3050 3051 3052 3054 3055 3055 3055 3055 3057 3058 3060 3061 3062 3063 3063 3063 3062 3063 3063 3064 3065 3066 3066 3066 3067 3068 3068 3068 3069 3069 3070 3071 3072 3073 3074 3075 3076 3077 3078 3079 3079 3079 3080 3081 3082 3082 3083
3029 3030 3031 3033 3034 3034 3034 3035 3035 3036 3037 3036 3036 3036 3037 3037 3037 3037 3038 3038 3038 3039 3039 3039 3040 3041 3042 3043 3043 3043 3044 3045 3046 3046 3047 3048 3048 3048 3049 3049 3050 3050 3050 3052 3054 3054 3054 3054 3055 3056 3057 3058 3059 3061 3062 3063 3062 3062 3063 3063 3064 3064 3065 3065 3066 3066 3067 3067 3068 3069 3069 3069 3070 3071 3072 3073 3074 3075 3076 3077 3078 3079 3079 3080 3081 3082 3082 3083